Fountain City, Wisconsin
Current Conditions -  °F | °C
As of 6:54 AM on Friday 24 Oct 2014 (Local Time) from KONA Reporting Station
Overcast Overcast  
Wind Chill: 52°   Ceiling: 500
Heat Index: 52°   Visibility: 7mi
Dew Point: 50°   Wind: 5mph
Humidity: 94%   Direction: 140°SE
Pressure: 29.99"   Gusts: NA
Location:  44.13°N, 91.72°W
Report Text: KONA 241154Z AUTO 14004KT 7SM OVC005 11/10 A2999 RMK AO2
Loading
Personal Weather Stations






























Interactive Weather Map
Tropical Storm Tracking
New forecast layout! Learn more

10-Day Weather Forecast

Advertisements
Track Severe Weather on mobile